Location: Four Corners
(38.2757°N, 122.4608°W)
Time: 02:55:31
(UTC+00:00)

NOAA 15 - Pass Details

Date: 08 December 2019
Orbit: 798 x 812 km, 98.7° (Epoch: 25 January)

Event Time Altitude Azimuth Distance (km) Brightness Sun altitude
Rises 02:32:06 0° 161° (SSE) 3,305 7.7 -19.6°
Reaches altitude 10° 02:34:26 10° 159° (SSE) 2,376 7.0 -20.0°
Maximum altitude 02:39:41 76° 75° (ENE) 829 4.4 -21.0°
Drops below altitude 10° 02:44:56 10° 350° (N) 2,383 7.0 -22.0°
Sets 02:47:16 0° 349° (N) 3,316 7.8 -22.5°
